FW6817 Weather Reports


time (UTC)temp
F
wind
direction
speed
knots
gust
knots
rain 1hr
in
rain 24hr
in
rain mn
in
humidity
%
barometer
mb
20260510202548 81 0 0.0 0.9 0.00 0.00 0.00 41 1015.0
20260510202046 82 0 0.0 0.0 0.00 0.00 0.00 37 1015.0
20260510201612 83 0 0.0 0.0 0.00 0.00 0.00 38 1015.0
20260510201048 83 0 0.0 0.0 0.00 0.00 0.00 36 1015.1
20260510200547 83 0 0.0 0.9 0.00 0.00 0.00 38 1015.1
20260510200055 82 0 0.0 0.9 0.00 0.00 0.00 38 1015.1
20260510195546 82 0 0.0 3.5 0.00 0.00 0.00 34 1015.1
20260510195046 83 0 0.0 3.5 0.00 0.00 0.00 42 1015.2
20260510194603 83 269 0.0 3.5 0.00 0.00 0.00 38 1015.3
20260510194048 82 280 0.0 3.5 0.00 0.00 0.00 38 1015.2
20260510193547 82 0 0.0 3.5 0.00 0.00 0.00 35 1015.2
20260510193055 82 0 0.0 4.3 0.00 0.00 0.00 38 1015.4
20260510192549 82 225 0.9 4.3 0.00 0.00 0.00 39 1015.4
20260510192048 83 0 0.0 2.6 0.00 0.00 0.00 37 1015.5
20260510191606 83 0 0.0 2.6 0.00 0.00 0.00 41 1015.5
20260510191046 83 0 0.0 2.6 0.00 0.00 0.00 39 1015.5
20260510190549 83 0 0.0 0.9 0.00 0.00 0.00 39 1015.6
20260510190057 82 0 0.0 2.6 0.00 0.00 0.00 37 1015.6
20260510185547 83 0 0.0 2.6 0.00 0.00 0.00 38 1015.7
20260510185047 83 244 0.0 3.5 0.00 0.00 0.00 41 1015.7
20260510184556 83 244 0.9 3.5 0.00 0.00 0.00 40 1015.6
20260510184047 82 0 0.9 2.6 0.00 0.00 0.00 39 1015.6
20260510183547 83 0 0.0 0.0 0.00 0.00 0.00 39 1015.7
20260510183057 82 0 0.0 0.9 0.00 0.00 0.00 37 1015.6
20260510182546 82 0 0.0 0.9 0.00 0.00 0.00 35 1015.7
20260510182047 82 151 0.0 0.9 0.00 0.00 0.00 38 1015.7
20260510181556 81 0 0.0 0.9 0.00 0.00 0.00 38 1015.8
20260510181046 81 0 0.0 0.0 0.00 0.00 0.00 42 1015.8
20260510180546 82 0 0.0 0.0 0.00 0.00 0.00 36 1016.0
20260510180053 81 0 0.0 0.0 0.00 0.00 0.00 38 1016.0
20260510175545 81 0 0.0 0.9 0.00 0.00 0.00 38 1016.0
20260510175048 82 0 0.0 0.9 0.00 0.00 0.00 39 1016.1
20260510174551 81 0 0.0 0.0 0.00 0.00 0.00 44 1016.0
20260510174046 81 0 0.0 0.9 0.00 0.00 0.00 36 1016.0
20260510173547 81 0 0.0 0.9 0.00 0.00 0.00 43 1016.1
20260510173049 80 0 0.0 2.6 0.00 0.00 0.00 42 1016.2
20260510172547 79 0 0.0 3.5 0.00 0.00 0.00 44 1016.2
20260510172047 80 0 1.7 3.5 0.00 0.00 0.00 40 1016.2
20260510171554 80 263 0.0 3.5 0.00 0.00 0.00 47 1016.2
20260510171046 80 0 0.9 3.5 0.00 0.00 0.00 41 1016.2
20260510170547 79 352 0.0 2.6 0.00 0.00 0.00 48 1016.2
20260510170054 80 49 0.9 3.5 0.00 0.00 0.00 42 1016.4
20260510165547 80 155 0.0 3.5 0.00 0.00 0.00 43 1016.2
20260510165049 80 58 1.7 4.3 0.00 0.00 0.00 38 1016.2
20260510164558 80 297 0.9 4.3 0.00 0.00 0.00 40 1016.3
20260510164047 79 0 0.0 0.9 0.00 0.00 0.00 38 1016.3
20260510163547 79 0 0.0 0.0 0.00 0.00 0.00 40 1016.4
20260510163056 78 0 0.0 0.9 0.00 0.00 0.00 42 1016.4
20260510162546 78 0 0.0 3.5 0.00 0.00 0.00 47 1016.4
20260510162046 80 0 0.0 3.5 0.00 0.00 0.00 48 1016.4
20260510161602 79 0 0.0 3.5 0.00 0.00 0.00 46 1016.4
20260510161047 78 0 0.0 0.0 0.00 0.00 0.00 53 1016.5
20260510160547 78 0 0.0 0.0 0.00 0.00 0.00 50 1016.5
20260510160133 77 0 0.0 5.2 0.00 0.00 0.00 46 1016.4
20260510155546 78 0 0.0 5.2 0.00 0.00 0.00 48 1016.5
20260510155047 79 9 0.0 1.7 0.00 0.00 0.00 53 1016.4
20260510154600 80 0 0.0 2.6 0.00 0.00 0.00 49 1016.4
20260510154048 78 310 0.0 2.6 0.00 0.00 0.00 51 1016.5
20260510153546 76 0 0.0 2.6 0.00 0.00 0.00 52 1016.5
20260510153052 74 0 0.0 0.9 0.00 0.00 0.00 51 1016.4
20260510152548 74 0 0.0 0.9 0.00 0.00 0.00 58 1016.6
20260510152045 75 0 0.0 1.7 0.00 0.00 0.00 64 1016.6
20260510151552 74 0 0.0 1.7 0.00 0.00 0.00 61 1016.7
20260510151047 73 0 0.0 0.9 0.00 0.00 0.00 57 1016.8
20260510150547 74 0 0.0 1.7 0.00 0.00 0.00 68 1016.8
20260510150055 73 0 0.0 3.5 0.00 0.00 0.00 72 1016.8
20260510145551 72 0 0.0 3.5 0.00 0.00 0.00 69 1016.7
20260510145047 72 81 0.0 1.7 0.00 0.00 0.00 67 1016.7
20260510144550 72 264 0.0 1.7 0.00 0.00 0.00 76 1016.8
20260510144048 70 0 0.0 0.9 0.00 0.00 0.00 75 1016.7
20260510143547 70 0 0.0 0.9 0.00 0.00 0.00 76 1016.6
20260510143055 69 0 0.0 0.9 0.00 0.00 0.00 77 1016.6
20260510142547 68 0 0.0 0.9 0.00 0.00 0.00 79 1016.7
20260510142047 66 0 0.0 0.0 0.00 0.00 0.00 79 1016.7
20260510141554 65 0 0.0 0.0 0.00 0.00 0.00 86 1016.6
20260510141047 64 0 0.0 0.0 0.00 0.00 0.00 88 1016.6
20260510140546 63 0 0.0 0.0 0.00 0.00 0.00 95 1016.5
20260510140055 62 0 0.0 0.0 0.00 0.00 0.00 96 1016.5
20260510135547 62 0 0.0 0.0 0.00 0.00 0.00 96 1016.6
20260510135048 62 0 0.0 0.0 0.00 0.00 0.00 96 1016.5
20260510134552 62 0 0.0 3.5 0.00 0.00 0.00 96 1016.5
20260510134046 62 0 0.0 3.5 0.00 0.00 0.00 96 1016.5
20260510133546 62 0 0.0 3.5 0.00 0.00 0.00 96 1016.4
20260510133050 61 0 0.0 0.0 0.00 0.00 0.00 96 1016.5
20260510132548 61 0 0.0 0.9 0.00 0.00 0.00 96 1016.4
20260510132047 61 0 0.0 0.9 0.00 0.00 0.00 96 1016.6
20260510131552 61 0 0.0 0.0 0.00 0.00 0.00 96 1016.5
20260510131047 61 0 0.0 0.0 0.00 0.00 0.00 96 1016.5
20260510130547 60 0 0.0 0.0 0.00 0.00 0.00 96 1016.4
20260510130048 60 0 0.0 0.0 0.00 0.00 0.00 96 1016.3
20260510125548 60 0 0.0 0.0 0.00 0.00 0.00 95 1016.4
20260510125048 60 0 0.0 0.0 0.00 0.00 0.00 95 1016.3
20260510124551 59 0 0.0 0.0 0.00 0.00 0.00 95 1016.2
20260510124047 59 0 0.0 0.0 0.00 0.00 0.00 95 1016.2
20260510123547 59 0 0.0 0.0 0.00 0.00 0.00 95 1016.1
20260510123052 59 0 0.0 0.0 0.00 0.00 0.00 95 1016.0
20260510122546 59 0 0.0 0.0 0.00 0.00 0.00 95 1015.9
20260510122047 59 0 0.0 0.0 0.00 0.00 0.00 95 1015.8
20260510121551 59 0 0.0 0.0 0.00 0.00 0.00 95 1015.7
20260510121048 58 0 0.0 0.0 0.00 0.00 0.00 95 1015.6
20260510120547 58 0 0.0 0.0 0.00 0.00 0.00 95 1015.6
20260510120049 58 0 0.0 0.0 0.00 0.00 0.00 94 1015.5
20260510115549 58 0 0.0 0.0 0.00 0.00 0.00 94 1015.4
20260510115047 58 0 0.0 0.0 0.00 0.00 0.00 94 1015.4
20260510114551 58 0 0.0 0.0 0.00 0.00 0.00 94 1015.4
20260510114048 58 0 0.0 0.0 0.00 0.00 0.00 94 1015.3
20260510113547 58 0 0.0 0.0 0.00 0.00 0.00 94 1015.2
20260510113052 58 0 0.0 0.0 0.00 0.00 0.00 94 1015.1
20260510112548 58 0 0.0 0.0 0.00 0.00 0.00 94 1015.1
20260510112051 58 0 0.0 0.0 0.00 0.00 0.00 94 1015.0
20260510111607 58 0 0.0 0.0 0.00 0.00 0.00 93 1014.9
20260510111047 58 0 0.0 0.0 0.00 0.00 0.00 93 1014.9
20260510110551 58 0 0.0 0.0 0.00 0.00 0.00 93 1014.8
20260510110051 58 0 0.0 0.0 0.00 0.00 0.00 93 1014.5
20260510105547 58 0 0.0 0.0 0.00 0.00 0.00 93 1014.5
20260510105047 58 0 0.0 0.0 0.00 0.00 0.00 93 1014.4
20260510104550 58 0 0.0 0.0 0.00 0.00 0.00 93 1014.3
20260510104046 58 0 0.0 0.0 0.00 0.00 0.00 93 1014.3
20260510103549 58 0 0.0 0.0 0.00 0.00 0.00 93 1014.3
20260510103053 58 0 0.0 0.0 0.00 0.00 0.00 93 1014.2
20260510102547 58 0 0.0 0.0 0.00 0.00 0.00 93 1014.1
20260510102047 58 0 0.0 0.0 0.00 0.00 0.00 93 1014.1
20260510101552 58 0 0.0 0.0 0.00 0.00 0.00 93 1014.0
20260510101050 59 0 0.0 0.0 0.00 0.00 0.00 93 1014.0
20260510100547 59 0 0.0 0.0 0.00 0.00 0.00 93 1013.9
20260510100052 59 0 0.0 0.0 0.00 0.00 0.00 93 1013.8
20260510095548 59 0 0.0 0.0 0.00 0.00 0.00 93 1013.7
20260510095046 59 0 0.0 0.0 0.00 0.00 0.00 93 1013.7
20260510094552 59 0 0.0 0.0 0.00 0.00 0.00 93 1013.7
20260510094044 59 0 0.0 0.0 0.00 0.00 0.00 93 1013.6
20260510093544 59 0 0.0 0.0 0.00 0.00 0.00 93 1013.6
20260510093102 59 0 0.0 0.0 0.00 0.00 0.00 93 1013.6
20260510092548 59 0 0.0 0.0 0.00 0.00 0.00 93 1013.6
20260510092048 59 0 0.0 0.0 0.00 0.00 0.00 93 1013.5
20260510091549 59 0 0.0 0.0 0.00 0.00 0.00 93 1013.4
20260510091050 59 0 0.0 0.0 0.00 0.00 0.00 93 1013.3
20260510090548 59 0 0.0 0.0 0.00 0.00 0.00 93 1013.4
20260510090056 59 0 0.0 0.0 0.00 0.00 0.00 93 1013.3
20260510085547 59 0 0.0 0.0 0.00 0.00 0.00 93 1013.3
20260510085048 59 0 0.0 0.0 0.00 0.00 0.00 93 1013.1
20260510084551 59 0 0.0 0.0 0.00 0.00 0.00 93 1013.1
20260510084045 59 0 0.0 0.0 0.00 0.00 0.00 93 1013.2
20260510083548 59 0 0.0 0.0 0.00 0.00 0.00 93 1013.2
20260510083102 59 0 0.0 0.0 0.00 0.00 0.00 93 1013.2
20260510082544 59 0 0.0 0.0 0.00 0.00 0.00 93 1013.1
20260510082047 59 0 0.0 0.0 0.00 0.00 0.00 93 1013.2
20260510081607 59 0 0.0 0.0 0.00 0.00 0.00 93 1013.1
20260510081044 59 0 0.0 0.0 0.00 0.00 0.00 93 1012.9
20260510080544 59 0 0.0 0.0 0.00 0.00 0.00 93 1012.9
20260510080054 59 0 0.0 0.0 0.00 0.00 0.00 93 1012.9
20260510075548 59 0 0.0 0.0 0.00 0.00 0.00 93 1012.8
20260510075044 59 0 0.0 0.0 0.00 0.00 0.00 92 1012.9
20260510074558 59 0 0.0 0.0 0.00 0.00 0.00 92 1012.9
20260510074051 59 0 0.0 0.0 0.00 0.00 0.00 92 1012.8
20260510073548 59 0 0.0 0.0 0.00 0.00 0.00 92 1012.9
20260510073053 59 0 0.0 0.0 0.00 0.00 0.00 92 1013.0
20260510072548 59 0 0.0 0.0 0.00 0.00 0.00 92 1013.0
20260510072050 59 0 0.0 0.0 0.00 0.00 0.00 91 1012.9
20260510071552 59 0 0.0 0.0 0.00 0.00 0.00 91 1012.8
20260510071044 59 0 0.0 0.0 0.00 0.00 0.00 91 1012.7
20260510070544 59 0 0.0 0.0 0.00 0.00 0.00 91 1012.5
20260510070050 59 0 0.0 0.0 0.00 0.00 0.00 91 1012.5
20260510065553 59 0 0.0 0.0 0.00 0.00 0.00 91 1012.7
20260510065052 60 0 0.0 0.0 0.00 0.00 0.00 91 1012.7
20260510064604 60 0 0.0 0.0 0.00 0.00 0.00 91 1012.7
20260510064044 60 0 0.0 0.0 0.00 0.00 0.00 91 1012.7
20260510063548 60 0 0.0 0.0 0.00 0.00 0.00 92 1012.7
20260510063052 60 0 0.0 0.0 0.00 0.00 0.00 92 1012.8
20260510062549 60 0 0.0 0.0 0.00 0.00 0.00 92 1012.7
20260510062048 60 0 0.0 0.0 0.00 0.00 0.00 92 1012.8
20260510061551 60 0 0.0 0.0 0.00 0.00 0.00 92 1012.8
20260510061045 60 0 0.0 0.0 0.00 0.00 0.00 92 1012.8
20260510060549 60 0 0.0 0.0 0.00 0.00 0.00 92 1012.8
20260510060051 60 0 0.0 0.0 0.00 0.00 0.00 92 1012.6
20260510055544 60 0 0.0 0.0 0.00 0.00 0.00 91 1012.6
20260510055051 60 0 0.0 0.0 0.00 0.00 0.00 91 1012.5
20260510054552 60 0 0.0 0.0 0.00 0.00 0.00 91 1012.6
20260510054048 60 0 0.0 0.0 0.00 0.00 0.00 91 1012.7
20260510053544 60 0 0.0 0.0 0.00 0.00 0.00 91 1012.8
20260510053101 60 0 0.0 0.0 0.00 0.00 0.00 91 1012.9
20260510052544 60 0 0.0 0.0 0.00 0.00 0.00 91 1012.9
20260510052048 60 0 0.0 0.0 0.00 0.00 0.00 91 1013.0
20260510051557 60 0 0.0 0.0 0.00 0.00 0.00 91 1012.9
20260510051048 60 0 0.0 0.0 0.00 0.00 0.00 91 1013.0
20260510050545 60 0 0.0 0.0 0.00 0.00 0.00 91 1013.0
20260510050056 60 0 0.0 0.0 0.00 0.00 0.00 91 1013.0
20260510045552 60 0 0.0 0.0 0.00 0.00 0.00 91 1013.0
20260510045048 60 0 0.0 0.0 0.00 0.00 0.00 91 1013.1
20260510044628 60 0 0.0 0.0 0.00 0.00 0.00 91 1013.0
20260510044045 60 0 0.0 0.0 0.00 0.00 0.00 91 1013.1
20260510043545 60 0 0.0 0.0 0.00 0.00 0.00 91 1013.3
20260510043054 60 0 0.0 0.0 0.00 0.00 0.00 90 1013.3
20260510042544 61 0 0.0 0.0 0.00 0.00 0.00 90 1013.2
20260510042051 61 0 0.0 0.0 0.00 0.00 0.00 90 1013.3
20260510041559 61 0 0.0 0.0 0.00 0.00 0.00 90 1013.4
20260510041045 61 0 0.0 0.0 0.00 0.00 0.00 90 1013.4
20260510040545 61 0 0.0 0.0 0.00 0.00 0.00 89 1013.3
20260510040056 61 0 0.0 0.0 0.00 0.00 0.00 89 1013.3
20260510035548 61 0 0.0 0.0 0.00 0.00 0.00 89 1013.1
20260510035044 61 0 0.0 0.0 0.00 0.00 0.00 89 1013.1
20260510034555 61 0 0.0 0.0 0.00 0.00 0.00 89 1013.2
20260510034048 61 0 0.0 0.0 0.00 0.00 0.00 89 1013.1
20260510033550 61 0 0.0 0.0 0.00 0.00 0.00 89 1013.3
20260510033101 61 0 0.0 0.0 0.00 0.00 0.00 89 1013.1
20260510032547 61 0 0.0 0.0 0.00 0.00 0.00 89 1013.1
20260510032047 61 0 0.0 0.0 0.00 0.00 0.00 88 1013.1
20260510031558 61 0 0.0 0.0 0.00 0.00 0.00 87 1013.1
20260510031051 62 0 0.0 0.0 0.00 0.00 0.00 87 1013.0
20260510030550 62 0 0.0 0.0 0.00 0.00 0.00 87 1013.1
20260510030057 62 0 0.0 0.0 0.00 0.00 0.00 87 1013.0
20260510025547 62 0 0.0 0.0 0.00 0.00 0.00 87 1012.9
20260510025047 62 0 0.0 0.0 0.00 0.00 0.00 86 1012.9
20260510024554 62 0 0.0 0.0 0.00 0.00 0.00 86 1012.9
20260510024048 62 0 0.0 0.0 0.00 0.00 0.00 86 1012.9
20260510023546 62 0 0.0 0.0 0.00 0.00 0.00 86 1013.0
20260510023053 63 0 0.0 0.0 0.00 0.00 0.00 86 1012.9
20260510022547 63 0 0.0 0.0 0.00 0.00 0.00 86 1012.9
20260510022047 63 0 0.0 0.0 0.00 0.00 0.00 86 1012.9
20260510021550 63 0 0.0 0.0 0.00 0.00 0.00 85 1012.9
20260510021047 63 0 0.0 0.0 0.00 0.00 0.00 85 1012.8
20260510020548 63 0 0.0 0.0 0.00 0.00 0.00 85 1012.7
20260510020051 64 0 0.0 0.0 0.00 0.00 0.00 85 1012.6
20260510015546 64 0 0.0 0.0 0.00 0.00 0.00 84 1012.5
20260510015049 64 0 0.0 0.0 0.00 0.00 0.00 84 1012.4
20260510014554 64 0 0.0 0.0 0.00 0.00 0.00 84 1012.5
20260510014047 64 0 0.0 0.0 0.00 0.00 0.00 84 1012.4
20260510013549 64 0 0.0 0.0 0.00 0.00 0.00 83 1012.3
20260510013049 65 0 0.0 0.0 0.00 0.00 0.00 83 1012.2
20260510012547 65 0 0.0 0.0 0.00 0.00 0.00 83 1012.3
20260510012047 65 0 0.0 0.0 0.00 0.00 0.00 83 1012.2
20260510011556 65 0 0.0 0.0 0.00 0.00 0.00 83 1012.1
20260510011048 65 0 0.0 0.0 0.00 0.00 0.00 83 1011.8
20260510010547 66 0 0.0 0.0 0.00 0.00 0.00 83 1011.8
20260510010114 66 0 0.0 0.0 0.00 0.00 0.00 82 1011.6
20260510005548 66 0 0.0 0.0 0.00 0.00 0.00 82 1011.5
20260510005048 66 0 0.0 0.0 0.00 0.00 0.00 82 1011.5
20260510004557 66 0 0.0 0.0 0.00 0.00 0.00 82 1011.4
20260510004048 66 0 0.0 0.0 0.00 0.00 0.00 81 1011.4
20260510003547 67 0 0.0 0.0 0.00 0.00 0.00 81 1011.4
20260510003051 67 0 0.0 0.0 0.00 0.00 0.00 82 1011.4
20260510002544 67 0 0.0 0.0 0.00 0.00 0.00 82 1011.4
20260510002044 67 0 0.0 0.0 0.00 0.00 0.00 82 1011.3
20260510001551 67 0 0.0 0.0 0.00 0.00 0.00 82 1011.3
20260510001048 67 0 0.0 2.6 0.00 0.00 0.00 82 1011.1
20260510000545 67 0 0.0 2.6 0.00 0.00 0.00 82 1011.0
20260510000052 67 0 0.0 2.6 0.00 0.00 0.00 82 1011.0
20260509235544 67 0 0.0 2.6 0.00 0.00 0.00 82 1011.2
20260509235045 67 0 0.0 2.6 0.00 0.00 0.00 82 1011.1
20260509234621 67 0 0.0 0.9 0.00 0.00 0.00 83 1011.2
20260509234044 67 0 0.0 0.9 0.00 0.00 0.00 83 1011.0
20260509233546 67 0 0.0 0.9 0.00 0.00 0.00 83 1010.9
20260509233051 67 0 0.0 0.0 0.00 0.00 0.00 83 1011.0
20260509232550 68 0 0.0 0.0 0.00 0.00 0.00 83 1011.0
20260509232048 68 0 0.0 0.0 0.00 0.00 0.00 83 1011.1
20260509231557 68 0 0.0 0.0 0.00 0.00 0.00 82 1011.0
20260509231044 68 0 0.0 0.0 0.00 0.00 0.00 82 1010.8
20260509230545 68 0 0.0 0.0 0.00 0.00 0.00 81 1010.7
20260509230054 69 0 0.0 0.0 0.00 0.00 0.00 81 1010.8
20260509225546 69 0 0.0 1.7 0.00 0.00 0.00 81 1010.9
20260509225044 69 0 0.0 2.6 0.00 0.00 0.00 80 1010.8
20260509224553 69 0 0.0 2.6 0.00 0.00 0.00 80 1010.7
20260509224049 69 213 0.0 1.7 0.00 0.00 0.00 81 1010.6
20260509223549 69 0 0.0 1.7 0.00 0.00 0.00 81 1010.7
20260509223056 69 0 0.0 0.0 0.00 0.00 0.00 81 1010.7
20260509222552 70 0 0.0 0.0 0.00 0.00 0.00 78 1010.6
20260509222045 70 0 0.0 0.0 0.00 0.00 0.00 80 1010.5
20260509221555 70 0 0.0 0.0 0.00 0.00 0.00 79 1010.6
20260509221047 70 0 0.0 2.6 0.00 0.00 0.00 79 1010.6
20260509220544 70 0 0.0 2.6 0.00 0.00 0.00 79 1010.5
20260509215548 70 0 0.0 0.9 0.00 0.00 0.00 81 1010.4
20260509215044 70 0 0.0 0.9 0.00 0.00 0.00 80 1010.6
20260509214555 70 0 0.0 2.6 0.00 0.00 0.00 77 1010.5
20260509214045 71 0 0.0 3.5 0.00 0.00 0.00 78 1010.6
20260509213548 70 0 0.0 3.5 0.00 0.00 0.00 80 1010.6
20260509213051 70 188 0.0 3.5 0.00 0.00 0.00 81 1010.4
20260509212544 70 0 0.0 3.5 0.00 0.00 0.00 79 1010.4
20260509212048 70 0 0.0 0.9 0.00 0.00 0.00 81 1010.4
20260509211556 70 0 0.0 1.7 0.00 0.00 0.00 80 1010.5
20260509211044 70 0 0.0 1.7 0.00 0.00 0.00 79 1010.6
20260509210546 71 0 0.0 1.7 0.00 0.00 0.00 78 1010.6
20260509210057 71 207 0.0 2.6 0.00 0.00 0.00 77 1010.6
20260509205545 72 207 0.0 2.6 0.00 0.00 0.00 76 1010.5
20260509205051 72 0 0.0 0.0 0.00 0.00 0.00 78 1010.4
20260509204600 72 0 0.0 0.9 0.00 0.00 0.00 76 1010.3
20260509204045 72 0 0.0 0.9 0.00 0.00 0.00 78 1010.3
20260509203546 72 0 0.0 0.9 0.00 0.00 0.00 76 1010.3
20260509203138 71 0 0.0 0.0 0.00 0.00 0.00 79 1010.4